| time (UTC) | temp F | wind direction | speed knots | gust knots | rain 1hr in | rain 24hr in | rain mn in | humidity % | barometer mb |
| 20260507223056 | 0 | 0.0 | 0.0 | 0.00 | 0.01 | 0.01 | 1016.5 | ||
| 20260507221549 | 0 | 0.0 | 0.0 | 0.01 | 0.01 | 0.01 | 1016.4 | ||
| 20260507220041 | 0 | 0.0 | 0.0 | 0.01 | 0.01 | 0.01 | 1016.6 | ||
| 20260507214537 | 0 | 45 | 0.0 | 0.0 | 0.01 | 0.01 | 0.01 | 1016.6 | |
| 20260507213030 | 0 | 45 | 0.0 | 0.0 | 0.01 | 0.05 | 0.01 | 1016.6 | |
| 20260507211524 | 0 | 45 | 0.0 | 0.0 | 0.01 | 0.05 | 0.01 | 1016.7 | |
| 20260507210020 | 0 | 45 | 0.0 | 0.0 | 0.00 | 0.04 | 0.00 | 1016.5 | |
| 20260507204514 | 0 | 45 | 0.0 | 0.0 | 0.00 | 0.04 | 0.00 | 1016.5 | |
| 20260507203008 | 0 | 45 | 0.0 | 0.0 | 0.00 | 0.06 | 0.00 | 1016.3 | |
| 20260507201505 | 0 | 45 | 0.0 | 0.0 | 0.00 | 0.06 | 0.00 | 1016.2 | |
| 20260507200000 | 0 | 45 | 0.0 | 0.0 | 0.00 | 0.06 | 0.00 | 1016.1 | |
| 20260507194557 | 0 | 45 | 0.0 | 0.0 | 0.00 | 0.06 | 0.00 | 1016.0 | |
| 20260507193102 | 0 | 45 | 0.0 | 0.0 | 0.00 | 0.06 | 0.00 | 1015.9 | |
| 20260507191557 | 0 | 45 | 0.0 | 0.0 | 0.00 | 0.06 | 0.00 | 1015.8 | |
| 20260507190051 | 0 | 45 | 0.0 | 0.0 | 0.00 | 0.06 | 0.00 | 1015.7 | |
| 20260507184546 | 0 | 45 | 0.0 | 0.0 | 0.00 | 0.06 | 0.00 | 1015.7 | |
| 20260507183045 | 0 | 45 | 0.0 | 0.0 | 0.00 | 0.07 | 0.00 | 1015.6 | |
| 20260507181538 | 0 | 45 | 0.0 | 0.0 | 0.00 | 0.07 | 0.00 | 1015.6 | |
| 20260507180040 | 0 | 63 | 0.0 | 0.0 | 0.00 | 0.07 | 0.00 | 1015.7 | |
| 20260507174534 | 0 | 63 | 0.0 | 0.0 | 0.00 | 0.07 | 0.00 | 1015.6 | |
| 20260507173020 | 0 | 61 | 0.0 | 0.0 | 0.00 | 0.13 | 0.00 | 1015.5 | |
| 20260507171516 | 0 | 71 | 0.0 | 0.0 | 0.00 | 0.13 | 0.00 | 1015.6 | |
| 20260507170013 | 0 | 144 | 0.0 | 0.0 | 0.00 | 0.13 | 0.00 | 1015.5 | |
| 20260507164507 | 0 | 87 | 0.0 | 0.0 | 0.00 | 0.13 | 0.00 | 1015.7 | |
| 20260507163012 | 0 | 69 | 0.0 | 0.0 | 0.00 | 0.13 | 0.00 | 1015.7 | |
| 20260507161506 | 0 | 88 | 0.0 | 0.0 | 0.00 | 0.13 | 0.00 | 1015.8 | |
| 20260507160003 | 0 | 70 | 0.0 | 0.0 | 0.00 | 0.13 | 0.00 | 1015.8 | |
| 20260507154559 | 0 | 80 | 0.0 | 0.0 | 0.00 | 0.13 | 0.00 | 1015.8 | |
| 20260507153053 | 0 | 85 | 0.0 | 0.0 | 0.00 | 0.14 | 0.00 | 1015.8 | |
| 20260507151548 | 0 | 126 | 0.0 | 0.0 | 0.00 | 0.14 | 0.00 | 1015.9 | |
| 20260507150044 | 0 | 92 | 0.0 | 0.0 | 0.00 | 0.14 | 0.00 | 1015.8 | |
| 20260507144540 | 0 | 71 | 0.0 | 0.0 | 0.00 | 0.14 | 0.00 | 1015.8 | |
| 20260507143044 | 0 | 76 | 0.0 | 0.0 | 0.00 | 0.14 | 0.00 | 1015.9 | |
| 20260507141535 | 0 | 71 | 0.0 | 0.0 | 0.00 | 0.14 | 0.00 | 1016.0 | |
| 20260507140031 | 0 | 63 | 0.0 | 0.0 | 0.00 | 0.14 | 0.00 | 1016.1 | |
| 20260507134536 | 0 | 73 | 0.0 | 0.0 | 0.00 | 0.14 | 0.00 | 1016.1 | |
| 20260507133022 | 0 | 56 | 0.0 | 0.0 | 0.00 | 0.14 | 0.00 | 1016.1 | |
| 20260507131524 | 0 | 67 | 0.0 | 0.0 | 0.00 | 0.14 | 0.00 | 1016.1 | |
| 20260507130013 | 0 | 76 | 0.0 | 0.0 | 0.00 | 0.14 | 0.00 | 1016.0 | |
| 20260507124508 | 0 | 76 | 0.0 | 0.0 | 0.00 | 0.14 | 0.00 | 1016.0 | |
| 20260507123108 | 0 | 65 | 0.0 | 0.0 | 0.00 | 0.14 | 0.00 | 1016.0 | |
| 20260507121601 | 0 | 73 | 0.0 | 0.0 | 0.00 | 0.14 | 0.00 | 1015.9 | |
| 20260507120051 | 0 | 339 | 0.0 | 0.0 | 0.00 | 0.14 | 0.00 | 1016.0 | |
| 20260507114547 | 0 | 67 | 0.0 | 0.0 | 0.00 | 0.14 | 0.00 | 1016.0 | |
| 20260507113048 | 0 | 55 | 0.0 | 0.0 | 0.00 | 0.14 | 0.00 | 1016.0 | |
| 20260507111544 | 0 | 79 | 0.0 | 0.0 | 0.00 | 0.14 | 0.00 | 1016.0 | |
| 20260507110050 | 0 | 50 | 0.0 | 0.0 | 0.00 | 0.14 | 0.00 | 1016.2 | |
| 20260507104535 | 0 | 128 | 0.0 | 0.0 | 0.00 | 0.14 | 0.00 | 1016.1 | |
| 20260507103032 | 0 | 130 | 0.0 | 0.0 | 0.00 | 0.14 | 0.00 | 1016.2 | |
| 20260507101533 | 0 | 91 | 0.0 | 0.0 | 0.00 | 0.14 | 0.00 | 1016.3 | |
| 20260507100028 | 0 | 42 | 0.0 | 0.0 | 0.00 | 0.14 | 0.00 | 1016.3 | |
| 20260507094522 | 0 | 51 | 0.0 | 0.0 | 0.00 | 0.14 | 0.00 | 1016.2 | |
| 20260507093016 | 0 | 129 | 0.0 | 0.0 | 0.00 | 0.14 | 0.00 | 1016.2 | |
| 20260507091512 | 0 | 169 | 0.0 | 0.0 | 0.00 | 0.14 | 0.00 | 1016.2 | |
| 20260507090007 | 0 | 166 | 0.0 | 0.0 | 0.00 | 0.14 | 0.00 | 1016.1 | |
| 20260507084503 | 0 | 77 | 0.0 | 0.0 | 0.00 | 0.14 | 0.00 | 1016.2 | |
| 20260507083101 | 0 | 70 | 0.0 | 0.0 | 0.00 | 0.14 | 0.14 | 1016.1 | |
| 20260507081556 | 0 | 70 | 0.0 | 0.0 | 0.00 | 0.14 | 0.14 | 1016.0 | |
| 20260507080052 | 0 | 69 | 0.0 | 0.0 | 0.00 | 0.14 | 0.14 | 1016.0 | |
| 20260507074548 | 0 | 0.0 | 0.0 | 0.00 | 0.14 | 0.14 | 1015.9 | ||
| 20260507073045 | 0 | 69 | 0.0 | 0.0 | 0.00 | 0.14 | 0.14 | 1015.8 | |
| 20260507071540 | 0 | 69 | 0.0 | 0.0 | 0.00 | 0.14 | 0.14 | 1015.8 | |
| 20260507070046 | 0 | 69 | 0.0 | 0.0 | 0.00 | 0.14 | 0.14 | 1015.7 | |
| 20260507064536 | 0 | 69 | 0.0 | 0.0 | 0.00 | 0.14 | 0.14 | 1015.7 | |
| 20260507063034 | 0 | 69 | 0.0 | 0.0 | 0.00 | 0.14 | 0.14 | 1015.6 | |
| 20260507061527 | 0 | 69 | 0.0 | 0.0 | 0.00 | 0.14 | 0.14 | 1015.6 | |
| 20260507060022 | 0 | 69 | 0.0 | 0.0 | 0.00 | 0.14 | 0.14 | 1015.4 | |
| 20260507054518 | 0 | 69 | 0.0 | 0.0 | 0.00 | 0.14 | 0.14 | 1015.3 | |
| 20260507053008 | 0 | 69 | 0.0 | 0.0 | 0.00 | 0.14 | 0.14 | 1015.2 | |
| 20260507051504 | 0 | 69 | 0.0 | 0.0 | 0.00 | 0.14 | 0.14 | 1015.2 | |
| 20260507050103 | 0 | 69 | 0.0 | 0.0 | 0.00 | 0.14 | 0.14 | 1015.1 | |
| 20260507044557 | 0 | 69 | 0.0 | 0.0 | 0.00 | 0.14 | 0.14 | 1015.0 | |
| 20260507043001 | 0 | 69 | 0.0 | 0.0 | 0.00 | 0.14 | 0.14 | 1014.9 | |
| 20260507041601 | 0 | 69 | 0.0 | 0.0 | 0.00 | 0.14 | 0.14 | 1014.9 | |
| 20260507040053 | 0 | 68 | 0.0 | 0.0 | 0.00 | 0.14 | 0.14 | 1014.8 | |
| 20260507034558 | 0 | 69 | 0.0 | 0.0 | 0.00 | 0.14 | 0.14 | 1014.8 | |
| 20260507033048 | 0 | 69 | 0.0 | 0.0 | 0.00 | 0.14 | 0.14 | 1014.7 | |
| 20260507031543 | 0 | 69 | 0.0 | 0.0 | 0.00 | 0.14 | 0.14 | 1014.8 | |
| 20260507030040 | 0 | 69 | 0.0 | 0.0 | 0.00 | 0.14 | 0.14 | 1014.8 | |
| 20260507024549 | 0 | 69 | 0.0 | 0.0 | 0.00 | 0.14 | 0.14 | 1014.6 | |
| 20260507023000 | 0 | 69 | 0.0 | 0.0 | 0.00 | 0.14 | 0.14 | 1014.6 | |
| 20260507021559 | 0 | 69 | 0.0 | 0.0 | 0.00 | 0.14 | 0.14 | 1014.5 | |
| 20260507020051 | 0 | 69 | 0.0 | 0.0 | 0.00 | 0.14 | 0.14 | 1014.5 | |
| 20260507014543 | 0 | 69 | 0.0 | 0.0 | 0.00 | 0.14 | 0.14 | 1014.5 | |
| 20260507013035 | 0 | 68 | 0.0 | 0.0 | 0.00 | 0.14 | 0.14 | 1014.4 | |
| 20260507011539 | 0 | 69 | 0.0 | 0.0 | 0.00 | 0.14 | 0.14 | 1014.5 | |
| 20260507010026 | 0 | 69 | 0.0 | 0.0 | 0.00 | 0.14 | 0.14 | 1014.5 | |
| 20260507004521 | 0 | 68 | 0.0 | 0.0 | 0.00 | 0.14 | 0.14 | 1014.4 | |
| 20260507003018 | 0 | 69 | 0.0 | 0.0 | 0.00 | 0.14 | 0.14 | 1014.4 | |
| 20260507001516 | 0 | 69 | 0.0 | 0.0 | 0.00 | 0.14 | 0.14 | 1014.4 | |
| 20260507000012 | 0 | 69 | 0.0 | 0.0 | 0.00 | 0.14 | 0.14 | 1014.5 | |
| 20260506234507 | 0 | 69 | 0.0 | 0.0 | 0.00 | 0.14 | 0.14 | 1014.5 | |
| 20260506233002 | 0 | 69 | 0.0 | 0.0 | 0.00 | 0.14 | 0.14 | 1014.5 | |
| 20260506231558 | 0 | 69 | 0.0 | 0.0 | 0.00 | 0.14 | 0.14 | 1014.4 | |
| 20260506230004 | 0 | 69 | 0.0 | 0.0 | 0.00 | 0.14 | 0.14 | 1014.4 | |
| 20260506224559 | 0 | 69 | 0.0 | 0.0 | 0.00 | 0.14 | 0.14 | 1014.3 |